Location: Baumgartsau
(48.4586°N, 14.0864°E)
Time: 18:17:16
(UTC+00:00)

STARLINK-1237 - Pass Details

Date: 09 April 2020
Orbit: 549 x 550 km, 53.0° (Epoch: 02 June)

Event Time Altitude Azimuth Distance (km) Brightness Sun altitude
Rises 18:50:02 0° 293° (WNW) 2,670 9.4 -10.8°
Reaches altitude 10° 18:52:16 10° 297° (WNW) 1,777 7.8 -11.1°
Maximum altitude 18:56:16 63° 19° (NNE) 594 3.8 -11.7°
Enters shadow 18:59:11 17° 98° (E) 1,363 5.0 -12.1°
